Regional Weather Roundup
Issued by NWS

Home | Current Version | Previous Version | Graphics & Text | Print | Product List | Glossary On
Versions: 1 2 3 4 5 6 7 8 9 10 11 12 13 14 15 16 17 18 19 20 21 22 23 24 25 26 27 28 29 30 31 32 33 34 35 36 37 38 39 40 41 42 43 44 45 46 47 48 49 50
000
ASUS43 KDMX 281407
RWRIA

WEATHER ROUNDUP FOR IOWA
NATIONAL WEATHER SERVICE DES MOINES IA
900 AM CDT THU AUG 28 2014

NOTE: "FAIR" INDICATES FEW OR NO CLOUDS BELOW 12,000 FEET WITH NO
SIGNIFICANT WEATHER AND/OR OBSTRUCTIONS TO VISIBILITY.

* - THESE STATIONS ARE NOT NWS STATIONS...THUS NOT UNDER NWS
QUALITY CONTROL.  THEY ALSO DO NOT REPORT WEATHER SUCH
AS PRECIPITATION OR FOG.

IAZ001>003-012>014-020>022-031>034-043>046-281500-
   NORTHWEST IOWA

CITY           SKY/WX    TMP DP  RH WIND       PRES   REMARKS
CARROLL *      RAIN      68  68 100 E8        30.00S
DENISON *      PTSUNNY   68  68 100 SE13G20   29.95F
LE MARS *      CLOUDY    68  68 100 SE7G14    29.95S FOG
ORANGE CITY *  LGT RAIN  70  66  88 SE6       29.97F
SHELDON *      CLOUDY    66  66 100 E8        29.97F FOG
SIOUX CITY     CLOUDY    69  68  96 SE7       29.94S
SPENCER        LGT RAIN  65  64  97 SE13      30.00F
STORM LAKE *   CLOUDY    66  66 100 SE14G20   29.97F FOG
$$

IAZ055>058-069>071-079>083-090>094-281500-
   SOUTHWEST IOWA

CITY           SKY/WX    TMP DP  RH WIND       PRES   REMARKS
ATLANTIC *     DRIZZLE   70  68  94 VRB6      29.98R
AUDUBON *      LGT RAIN  70  68  94 SE10      30.00F
CLARINDA *     RAIN      70  70 100 E7        30.01F
COUNCIL BLFS * CLOUDY    70  70 100 SE7G14    29.96F
CRESTON *      LGT RAIN  68  68 100 NE6       30.03S
HARLAN  *      CLOUDY    70  70 100 CALM      30.02R
LAMONI         CLOUDY    70  68  93 E7        30.00F
RED OAK *      CLOUDY    70  70 100 SE6       29.99S FOG
SHENANDOAH *   MOSUNNY   70  70 100 SE6       29.98F
$$

IAZ047>049-059>061-072>074-084-281500-
   CENTRAL IOWA

CITY           SKY/WX    TMP DP  RH WIND       PRES   REMARKS
AMES           RAIN      65  65 100 E6        30.04S FOG
ANKENY *       LGT RAIN  66  64  94 VRB6      30.03S
CHARITON *     PTSUNNY   70  68  94 E10       30.00F
DES MOINES     HVY RAIN  67  66  97 NE3       30.03R FOG
GRINNELL*      HVY RAIN  64  64 100 E9        30.06F
KNOXVILLE *    CLOUDY    68  66  94 E9        30.02S
MARSHALLTOWN   LGT RAIN  65  64  97 SE8       30.06R
PELLA *        LGT RAIN  68  66  94 E5        30.05F
PERRY *        RAIN      66  66 100 E9        30.01F
$$

IAZ004>006-015-016-023>025-035-036-281500-
   NORTH CENTRAL IOWA

CITY           SKY/WX    TMP DP  RH WIND       PRES   REMARKS
ALGONA *       LGT RAIN  64  64 100 SE10      30.03F
CLARION *      LGT RAIN  64  64 100 SE10      30.05S
ESTHERVILLE    HVY RAIN  63  63 100 SE12      30.02F FOG
FORT DODGE *   CLOUDY    64  63  94 SE7       30.04S
MASON CITY     LGT RAIN  63  62  97 SE6       30.08F
FOREST CITY *  LGT RAIN  63  63 100 SE6       30.06F
IOWA FALLS *   LGT RAIN  64  63  94 CALM      30.07F
$$

IAZ007>011-017>019-026>030-037>042-050>054-066-281500-
   NORTHEAST IOWA

CITY           SKY/WX    TMP DP  RH WIND       PRES   REMARKS
CEDAR RAPIDS   CLOUDY    67  61  81 E8        30.07S
CHARLES CITY * MOSUNNY   64  63  94 SE8       30.10S
CLINTON *      PTSUNNY   66  63  88 SE12      30.12F
DECORAH *        N/A     64  63  94 SE6       30.10S
DUBUQUE        CLOUDY    65  61  87 SE10      30.12R
MONTICELLO *   SUNNY     68  63  83 SE10      30.09F
OELWEIN *      CLOUDY    66  61  82 SE8       30.10S
WATERLOO       LGT RAIN  65  62  90 E8        30.07S FOG
$$

IAZ064-065-067-068-078-281500-
   EAST CENTRAL IOWA

CITY           SKY/WX    TMP DP  RH WIND       PRES   REMARKS
DAVENPORT      PTSUNNY   68  61  78 SE14G20   30.09F
IOWA CITY      CLOUDY    67  60  78 E7        30.08S
MT. PLEASANT * CLOUDY    72  63  73 SE10      30.06S
MUSCATINE *    CLOUDY    70  59  68 SE9       30.07S
QUAD CITIES    PTSUNNY   69  61  75 E12       30.08F
$$

IAZ062-063-075>077-085>089-095>099-281500-
   SOUTHEAST IOWA

CITY           SKY/WX    TMP DP  RH WIND       PRES   REMARKS
BURLINGTON     LGT RAIN  70  61  73 SE12      30.06S
FAIRFIELD *    LGT RAIN  68  66  94 E9        30.05S
FORT MADISON * MOSUNNY   72  66  83 E9        30.06S
KEOKUK *       MOSUNNY   72  70  94 SE9G17    30.04S
OSKALOOSA *    RAIN      68  66  94 CALM      30.06R
CENTERVILLE *  CLOUDY    68  68 100 E7        30.04F FOG
OTTUMWA        RAIN      68  66  93 E8        30.03F FOG
WASHINGTON *   CLOUDY    68  64  88 SE12      30.06S
$$

ABBREVIATIONS USED IN REMARKS
   TC - TEMPERATURES IN CELSIUS
  WCI - WIND CHILL INDEX
   HX - HEAT INDEX
  VSB - VISIBILITY
$$



USA.gov is the U.S. government's official web portal to all federal, state and local government web resources and services.